Time,TemperatureF,DewpointF,PressureIn,WindDirection,WindDirectionDegrees,WindSpeedMPH,WindSpeedGustMPH,Humidity,HourlyPrecipIn,Conditions,Clouds,dailyrainin,SoftwareType,DateUTC
2013-07-15 00:04:00,75.4,72.9,30.12,WSW,246,0.0,0.0,92,0.00,,,0.00,Wunderground v.1.15,2013-07-15 04:04:00,
2013-07-15 00:14:00,75.3,72.8,30.12,WSW,246,0.0,0.0,92,0.00,,,0.00,Wunderground v.1.15,2013-07-15 04:14:00,
2013-07-15 00:19:00,75.1,72.6,30.12,WSW,246,0.0,0.0,92,0.00,,,0.00,Wunderground v.1.15,2013-07-15 04:19:00,
2013-07-15 00:28:00,74.7,72.5,30.12,WSW,246,0.0,0.0,93,0.00,,,0.00,Wunderground v.1.15,2013-07-15 04:28:00,
2013-07-15 00:34:00,74.7,72.5,30.12,WSW,246,0.0,0.0,93,0.00,,,0.00,Wunderground v.1.15,2013-07-15 04:34:00,
2013-07-15 00:39:00,74.7,72.5,30.12,WSW,246,0.0,0.0,93,0.00,,,0.00,Wunderground v.1.15,2013-07-15 04:39:00,
2013-07-15 00:49:00,74.4,72.6,30.12,WSW,246,0.0,0.0,94,0.00,,,0.00,Wunderground v.1.15,2013-07-15 04:49:00,
2013-07-15 00:59:00,74.4,72.6,30.12,WSW,246,0.0,0.0,94,0.00,,,0.00,Wunderground v.1.15,2013-07-15 04:59:00,
2013-07-15 01:04:00,74.2,72.7,30.12,WSW,246,0.0,0.0,95,0.00,,,0.00,Wunderground v.1.15,2013-07-15 05:04:00,
2013-07-15 01:14:00,74.2,72.7,30.12,WSW,246,0.0,0.0,95,0.00,,,0.00,Wunderground v.1.15,2013-07-15 05:14:00,
2013-07-15 01:24:00,73.9,72.7,30.12,WSW,246,0.0,0.0,96,0.00,,,0.00,Wunderground v.1.15,2013-07-15 05:24:00,
2013-07-15 01:35:00,73.7,72.5,30.12,WSW,246,0.0,0.0,96,0.00,,,0.00,Wunderground v.1.15,2013-07-15 05:35:00,
2013-07-15 01:45:00,73.5,72.3,30.12,WSW,246,0.0,0.0,96,0.00,,,0.00,Wunderground v.1.15,2013-07-15 05:45:00,
2013-07-15 01:54:00,73.2,72.0,30.12,WSW,246,0.0,0.0,96,0.00,,,0.00,Wunderground v.1.15,2013-07-15 05:54:00,
2013-07-15 02:00:00,73.0,71.8,30.12,WSW,246,0.0,0.0,96,0.00,,,0.00,Wunderground v.1.15,2013-07-15 06:00:00,
2013-07-15 02:05:00,72.8,71.6,30.12,WSW,246,0.0,0.0,96,0.00,,,0.00,Wunderground v.1.15,2013-07-15 06:05:00,
2013-07-15 02:15:00,72.7,71.5,30.12,WSW,246,0.0,0.0,96,0.00,,,0.00,Wunderground v.1.15,2013-07-15 06:15:00,
2013-07-15 02:24:00,72.8,71.9,30.12,WSW,246,0.0,0.0,97,0.00,,,0.00,Wunderground v.1.15,2013-07-15 06:24:00,
2013-07-15 02:34:00,72.8,71.9,30.12,WSW,246,0.0,0.0,97,0.00,,,0.00,Wunderground v.1.15,2013-07-15 06:34:00,
2013-07-15 02:40:00,72.8,71.9,30.12,WSW,246,0.0,0.0,97,0.00,,,0.00,Wunderground v.1.15,2013-07-15 06:40:00,
2013-07-15 02:49:00,72.3,71.4,30.12,WSW,246,0.0,0.0,97,0.00,,,0.00,Wunderground v.1.15,2013-07-15 06:49:00,
2013-07-15 02:59:00,72.3,71.7,30.12,WSW,246,0.0,0.0,98,0.00,,,0.00,Wunderground v.1.15,2013-07-15 06:59:00,
2013-07-15 03:05:00,72.5,71.9,30.12,WSW,246,0.0,0.0,98,0.00,,,0.00,Wunderground v.1.15,2013-07-15 07:05:00,
2013-07-15 03:14:00,73.0,72.4,30.12,WSW,246,0.0,0.0,98,0.00,,,0.00,Wunderground v.1.15,2013-07-15 07:14:00,
2013-07-15 03:24:00,73.0,72.4,30.12,WSW,246,0.0,0.0,98,0.00,,,0.00,Wunderground v.1.15,2013-07-15 07:24:00,
2013-07-15 03:34:00,72.8,72.2,30.12,WSW,246,0.0,0.0,98,0.00,,,0.00,Wunderground v.1.15,2013-07-15 07:34:00,
2013-07-15 03:39:00,72.7,72.1,30.12,WSW,246,0.0,0.0,98,0.00,,,0.00,Wunderground v.1.15,2013-07-15 07:39:00,
2013-07-15 03:49:00,72.7,72.1,30.12,WSW,246,0.0,0.0,98,0.00,,,0.00,Wunderground v.1.15,2013-07-15 07:49:00,
2013-07-15 03:59:00,72.7,72.1,30.12,WSW,246,0.0,0.0,98,0.00,,,0.00,Wunderground v.1.15,2013-07-15 07:59:00,
2013-07-15 04:04:00,72.7,72.1,30.12,WSW,246,0.0,0.0,98,0.00,,,0.00,Wunderground v.1.15,2013-07-15 08:04:00,
2013-07-15 04:14:00,72.5,71.9,30.12,WSW,246,0.0,0.0,98,0.00,,,0.00,Wunderground v.1.15,2013-07-15 08:14:00,
2013-07-15 04:19:00,72.3,71.7,30.12,WSW,246,0.0,0.0,98,0.00,,,0.00,Wunderground v.1.15,2013-07-15 08:19:00,
2013-07-15 04:29:00,72.3,72.0,30.12,WSW,246,0.0,0.0,99,0.00,,,0.00,Wunderground v.1.15,2013-07-15 08:29:00,
2013-07-15 04:39:00,72.3,72.0,30.13,WSW,246,0.0,0.0,99,0.00,,,0.00,Wunderground v.1.15,2013-07-15 08:39:00,
2013-07-15 04:49:00,72.3,72.0,30.13,WSW,246,0.0,0.0,99,0.00,,,0.00,Wunderground v.1.15,2013-07-15 08:49:00,
2013-07-15 04:59:00,72.3,72.0,30.13,WSW,246,0.0,0.0,99,0.00,,,0.00,Wunderground v.1.15,2013-07-15 08:59:00,
2013-07-15 05:04:00,72.3,72.0,30.13,WSW,246,0.0,0.0,99,0.00,,,0.00,Wunderground v.1.15,2013-07-15 09:04:00,
2013-07-15 05:14:00,72.3,72.0,30.13,WSW,246,0.0,0.0,99,0.00,,,0.00,Wunderground v.1.15,2013-07-15 09:14:00,
2013-07-15 05:19:00,72.3,72.0,30.13,WSW,246,0.0,0.0,99,0.00,,,0.00,Wunderground v.1.15,2013-07-15 09:19:00,
2013-07-15 05:29:00,72.3,72.0,30.13,WSW,246,0.0,0.0,99,0.00,,,0.00,Wunderground v.1.15,2013-07-15 09:29:00,
2013-07-15 05:39:00,72.1,71.8,30.13,WSW,246,0.0,0.0,99,0.00,,,0.00,Wunderground v.1.15,2013-07-15 09:39:00,
2013-07-15 05:49:00,72.1,71.8,30.13,WSW,246,0.0,0.0,99,0.00,,,0.00,Wunderground v.1.15,2013-07-15 09:49:00,
2013-07-15 05:59:00,72.3,72.0,30.13,WSW,246,0.0,0.0,99,0.00,,,0.00,Wunderground v.1.15,2013-07-15 09:59:00,
2013-07-15 06:04:00,72.3,72.0,30.13,WSW,246,0.0,0.0,99,0.00,,,0.00,Wunderground v.1.15,2013-07-15 10:04:00,
2013-07-15 06:14:00,72.3,72.0,30.13,WSW,246,0.0,0.0,99,0.00,,,0.00,Wunderground v.1.15,2013-07-15 10:14:00,
2013-07-15 06:24:00,72.5,72.2,30.13,WSW,246,0.0,0.0,99,0.00,,,0.00,Wunderground v.1.15,2013-07-15 10:24:00,
2013-07-15 06:29:00,72.7,72.4,30.13,WSW,246,0.0,0.0,99,0.00,,,0.00,Wunderground v.1.15,2013-07-15 10:29:00,
2013-07-15 06:39:00,72.8,72.5,30.13,WSW,246,0.0,0.0,99,0.00,,,0.00,Wunderground v.1.15,2013-07-15 10:39:00,
2013-07-15 06:49:00,73.0,72.7,30.13,WSW,246,0.0,0.0,99,0.00,,,0.00,Wunderground v.1.15,2013-07-15 10:49:00,
2013-07-15 06:54:00,73.2,72.9,30.13,WSW,246,0.0,0.0,99,0.00,,,0.00,Wunderground v.1.15,2013-07-15 10:54:00,
2013-07-15 07:04:00,73.5,73.2,30.13,WSW,246,0.0,0.0,99,0.00,,,0.00,Wunderground v.1.15,2013-07-15 11:04:00,
2013-07-15 07:14:00,73.5,73.2,30.14,WSW,246,0.0,0.0,99,0.00,,,0.00,Wunderground v.1.15,2013-07-15 11:14:00,
2013-07-15 07:24:00,73.5,73.2,30.14,WSW,246,0.0,0.0,99,0.00,,,0.00,Wunderground v.1.15,2013-07-15 11:24:00,
2013-07-15 07:34:00,73.9,73.6,30.14,WSW,246,0.0,0.0,99,0.00,,,0.00,Wunderground v.1.15,2013-07-15 11:34:00,
2013-07-15 07:44:00,74.0,73.4,30.14,WSW,246,0.0,0.0,98,0.00,,,0.00,Wunderground v.1.15,2013-07-15 11:44:00,
2013-07-15 07:54:00,74.6,74.0,30.15,WSW,246,0.0,0.0,98,0.00,,,0.00,Wunderground v.1.15,2013-07-15 11:54:00,
2013-07-15 07:59:00,74.7,74.1,30.15,WSW,246,0.0,0.0,98,0.00,,,0.00,Wunderground v.1.15,2013-07-15 11:59:00,
2013-07-15 08:04:00,74.7,74.1,30.15,North,360,0.0,0.0,98,0.00,,,0.00,Wunderground v.1.15,2013-07-15 12:04:00,
2013-07-15 08:14:00,75.1,74.5,30.15,North,360,0.0,0.0,98,0.00,,,0.00,Wunderground v.1.15,2013-07-15 12:14:00,
2013-07-15 08:24:00,75.6,75.0,30.16,North,5,0.0,0.0,98,0.00,,,0.00,Wunderground v.1.15,2013-07-15 12:24:00,
2013-07-15 08:33:00,76.0,72.9,30.16,North,5,0.0,0.0,90,0.00,,,0.00,Wunderground v.1.15,2013-07-15 12:33:00,
2013-07-15 08:39:00,76.3,72.8,30.15,NNE,12,0.0,1.0,89,0.00,,,0.00,Wunderground v.1.15,2013-07-15 12:39:00,
2013-07-15 08:49:00,76.8,73.3,30.15,NNE,12,0.0,0.0,89,0.00,,,0.00,Wunderground v.1.15,2013-07-15 12:49:00,
2013-07-15 08:58:00,76.8,72.3,30.16,NE,44,1.0,1.0,86,0.00,,,0.00,Wunderground v.1.15,2013-07-15 12:58:00,
2013-07-15 09:04:00,77.0,72.1,30.16,NE,42,2.0,2.0,85,0.00,,,0.00,Wunderground v.1.15,2013-07-15 13:04:00,
2013-07-15 09:14:00,77.4,71.5,30.16,NE,42,1.0,1.0,82,0.00,,,0.00,Wunderground v.1.15,2013-07-15 13:14:00,
2013-07-15 09:24:00,77.9,71.6,30.16,NNE,14,1.0,1.0,81,0.00,,,0.00,Wunderground v.1.15,2013-07-15 13:24:00,
2013-07-15 09:30:00,78.3,71.6,30.16,NNE,30,1.0,4.0,80,0.00,,,0.00,Wunderground v.1.15,2013-07-15 13:30:00,
2013-07-15 09:40:00,78.6,71.5,30.15,NNW,328,1.0,1.0,79,0.00,,,0.00,Wunderground v.1.15,2013-07-15 13:40:00,
2013-07-15 09:49:00,79.0,71.6,30.15,North,11,1.0,1.0,78,0.00,,,0.00,Wunderground v.1.15,2013-07-15 13:49:00,
2013-07-15 10:00:00,79.4,71.6,30.15,NNW,344,0.0,2.0,77,0.00,,,0.00,Wunderground v.1.15,2013-07-15 14:00:00,
2013-07-15 10:05:00,79.6,71.8,30.15,North,355,1.0,3.0,77,0.00,,,0.00,Wunderground v.1.15,2013-07-15 14:05:00,
2013-07-15 10:14:00,80.1,71.8,30.15,NNE,28,1.0,2.0,76,0.00,,,0.00,Wunderground v.1.15,2013-07-15 14:14:00,
2013-07-15 10:24:00,80.1,71.1,30.16,NE,46,1.0,1.0,74,0.00,,,0.00,Wunderground v.1.15,2013-07-15 14:24:00,
2013-07-15 10:34:00,80.3,70.9,30.16,NNW,335,1.0,2.0,73,0.00,,,0.00,Wunderground v.1.15,2013-07-15 14:34:00,
2013-07-15 10:40:00,80.5,70.6,30.16,NNE,12,1.0,1.0,72,0.00,,,0.00,Wunderground v.1.15,2013-07-15 14:40:00,
2013-07-15 10:49:00,80.9,71.0,30.16,NE,35,1.0,1.0,72,0.00,,,0.00,Wunderground v.1.15,2013-07-15 14:49:00,
2013-07-15 10:59:00,81.1,71.2,30.16,NNW,333,1.0,1.0,72,0.00,,,0.00,Wunderground v.1.15,2013-07-15 14:59:00,
2013-07-15 11:05:00,81.1,71.2,30.16,NNW,344,1.0,2.0,72,0.00,,,0.00,Wunderground v.1.15,2013-07-15 15:05:00,
2013-07-15 11:19:00,81.4,72.3,30.16,North,5,0.0,6.0,74,0.00,,,0.00,Wunderground v.1.15,2013-07-15 15:19:00,
2013-07-15 11:29:00,81.8,71.9,30.15,NNW,346,1.0,6.0,72,0.00,,,0.00,Wunderground v.1.15,2013-07-15 15:29:00,
2013-07-15 11:39:00,82.0,71.7,30.16,NE,49,1.0,1.0,71,0.00,,,0.00,Wunderground v.1.15,2013-07-15 15:39:00,
2013-07-15 11:49:00,82.0,72.1,30.16,ENE,60,2.0,6.0,72,0.00,,,0.00,Wunderground v.1.15,2013-07-15 15:49:00,
2013-07-15 11:54:00,81.6,71.7,30.16,NE,38,1.0,6.0,72,0.00,,,0.00,Wunderground v.1.15,2013-07-15 15:54:00,
2013-07-15 12:05:00,81.8,72.3,30.16,NNW,327,2.0,6.0,73,0.00,,,0.00,Wunderground v.1.15,2013-07-15 16:05:00,
2013-07-15 12:14:00,82.2,71.9,30.16,NNW,333,2.0,4.0,71,0.00,,,0.00,Wunderground v.1.15,2013-07-15 16:14:00,
2013-07-15 12:24:00,82.8,71.6,30.16,NE,34,2.0,5.0,69,0.00,,,0.00,Wunderground v.1.15,2013-07-15 16:24:00,
2013-07-15 12:34:00,83.0,71.8,30.16,NE,35,2.0,2.0,69,0.00,,,0.00,Wunderground v.1.15,2013-07-15 16:34:00,
2013-07-15 12:39:00,83.2,71.5,30.15,NE,39,2.0,2.0,68,0.00,,,0.00,Wunderground v.1.15,2013-07-15 16:39:00,
2013-07-15 12:49:00,83.8,72.1,30.15,ENE,58,2.0,2.0,68,0.00,,,0.00,Wunderground v.1.15,2013-07-15 16:49:00,
2013-07-15 13:04:00,84.3,71.7,30.15,North,5,2.0,7.0,66,0.00,,,0.00,Wunderground v.1.15,2013-07-15 17:04:00,
2013-07-15 13:14:00,84.1,72.0,30.15,NE,38,1.0,7.0,67,0.00,,,0.00,Wunderground v.1.15,2013-07-15 17:14:00,
2013-07-15 13:24:00,84.1,72.4,30.15,NE,44,1.0,7.0,68,0.00,,,0.00,Wunderground v.1.15,2013-07-15 17:24:00,
2013-07-15 13:34:00,84.3,72.1,30.15,NNE,23,1.0,7.0,67,0.00,,,0.00,Wunderground v.1.15,2013-07-15 17:34:00,
2013-07-15 13:39:00,84.5,71.4,30.15,NE,42,0.0,7.0,65,0.00,,,0.00,Wunderground v.1.15,2013-07-15 17:39:00,
2013-07-15 13:49:00,84.7,71.6,30.15,NE,46,1.0,7.0,65,0.00,,,0.00,Wunderground v.1.15,2013-07-15 17:49:00,
2013-07-15 13:59:00,84.7,71.2,30.15,NE,43,1.0,7.0,64,0.00,,,0.00,Wunderground v.1.15,2013-07-15 17:59:00,
2013-07-15 14:04:00,84.7,71.2,30.15,NE,47,1.0,7.0,64,0.00,,,0.00,Wunderground v.1.15,2013-07-15 18:04:00,
2013-07-15 14:19:00,84.7,71.6,30.14,NE,40,1.0,1.0,65,0.00,,,0.00,Wunderground v.1.15,2013-07-15 18:19:00,
2013-07-15 14:29:00,84.9,71.8,30.14,NE,44,2.0,2.0,65,0.00,,,0.00,Wunderground v.1.15,2013-07-15 18:29:00,
2013-07-15 14:39:00,85.5,72.4,30.13,ENE,61,1.0,1.0,65,0.00,,,0.00,Wunderground v.1.15,2013-07-15 18:39:00,
2013-07-15 14:49:00,84.9,72.3,30.13,NE,51,1.0,1.0,66,0.00,,,0.00,Wunderground v.1.15,2013-07-15 18:49:00,
2013-07-15 14:54:00,84.9,71.8,30.13,NE,53,1.0,1.0,65,0.00,,,0.00,Wunderground v.1.15,2013-07-15 18:54:00,
2013-07-15 15:09:00,84.3,72.1,30.13,North,355,1.0,10.0,67,0.00,,,0.00,Wunderground v.1.15,2013-07-15 19:09:00,
2013-07-15 15:14:00,85.1,72.5,30.13,NNE,30,1.0,10.0,66,0.00,,,0.00,Wunderground v.1.15,2013-07-15 19:14:00,
2013-07-15 15:24:00,85.3,73.1,30.13,NE,47,1.0,10.0,67,0.00,,,0.00,Wunderground v.1.15,2013-07-15 19:24:00,
2013-07-15 15:34:00,85.9,73.2,30.13,NE,46,1.0,10.0,66,0.00,,,0.00,Wunderground v.1.15,2013-07-15 19:34:00,
2013-07-15 15:44:00,85.9,75.0,30.13,NE,39,1.0,10.0,70,0.00,,,0.00,Wunderground v.1.15,2013-07-15 19:44:00,
2013-07-15 15:54:00,86.3,73.1,30.13,ENE,59,1.0,10.0,65,0.00,,,0.00,Wunderground v.1.15,2013-07-15 19:54:00,
2013-07-15 16:04:00,85.7,73.0,30.13,ENE,58,2.0,10.0,66,0.00,,,0.00,Wunderground v.1.15,2013-07-15 20:04:00,
2013-07-15 16:14:00,85.3,72.2,30.12,NE,44,1.0,1.0,65,0.00,,,0.00,Wunderground v.1.15,2013-07-15 20:14:00,
2013-07-15 16:24:00,86.5,73.3,30.12,NW,321,1.0,1.0,65,0.00,,,0.00,Wunderground v.1.15,2013-07-15 20:24:00,
2013-07-15 16:34:00,87.2,72.6,30.12,NW,323,2.0,3.0,62,0.00,,,0.00,Wunderground v.1.15,2013-07-15 20:34:00,
2013-07-15 16:43:00,87.2,73.5,30.11,NNW,334,1.0,2.0,64,0.00,,,0.00,Wunderground v.1.15,2013-07-15 20:43:00,
2013-07-15 16:54:00,86.5,73.3,30.11,NE,56,2.0,4.0,65,0.00,,,0.00,Wunderground v.1.15,2013-07-15 20:54:00,
2013-07-15 17:04:00,86.1,73.0,30.11,NE,44,1.0,10.0,65,0.00,,,0.00,Wunderground v.1.15,2013-07-15 21:04:00,
2013-07-15 17:19:00,85.9,72.3,30.11,NE,44,1.0,1.0,64,0.00,,,0.00,Wunderground v.1.15,2013-07-15 21:19:00,
2013-07-15 17:24:00,85.7,72.6,30.11,NE,54,1.0,10.0,65,0.00,,,0.00,Wunderground v.1.15,2013-07-15 21:24:00,
2013-07-15 17:35:00,85.9,73.7,30.11,NNE,32,1.0,10.0,67,0.00,,,0.00,Wunderground v.1.15,2013-07-15 21:35:00,
2013-07-15 17:44:00,85.9,73.2,30.11,ENE,58,1.0,2.0,66,0.00,,,0.00,Wunderground v.1.15,2013-07-15 21:44:00,
2013-07-15 17:54:00,85.9,73.2,30.11,NNE,17,1.0,10.0,66,0.00,,,0.00,Wunderground v.1.15,2013-07-15 21:54:00,
2013-07-15 18:00:00,86.3,73.1,30.11,NW,326,1.0,1.0,65,0.00,,,0.00,Wunderground v.1.15,2013-07-15 22:00:00,
2013-07-15 18:05:00,86.3,73.1,30.11,NE,38,1.0,3.0,65,0.00,,,0.00,Wunderground v.1.15,2013-07-15 22:05:00,
2013-07-15 18:15:00,85.7,73.5,30.10,WNW,302,1.0,5.0,67,0.00,,,0.00,Wunderground v.1.15,2013-07-15 22:15:00,
2013-07-15 18:24:00,85.7,72.1,30.10,NNE,30,1.0,1.0,64,0.00,,,0.00,Wunderground v.1.15,2013-07-15 22:24:00,
2013-07-15 18:34:00,85.5,71.5,30.10,NW,309,0.0,1.0,63,0.00,,,0.00,Wunderground v.1.15,2013-07-15 22:34:00,
2013-07-15 18:40:00,85.9,72.3,30.10,North,355,0.0,0.0,64,0.00,,,0.00,Wunderground v.1.15,2013-07-15 22:40:00,
2013-07-15 18:49:00,85.7,73.0,30.10,NNE,13,0.0,0.0,66,0.00,,,0.00,Wunderground v.1.15,2013-07-15 22:49:00,
2013-07-15 18:59:00,84.9,72.7,30.10,NE,34,1.0,3.0,67,0.00,,,0.00,Wunderground v.1.15,2013-07-15 22:59:00,
2013-07-15 19:05:00,84.3,72.6,30.10,NE,43,2.0,10.0,68,0.00,,,0.00,Wunderground v.1.15,2013-07-15 23:05:00,
2013-07-15 19:14:00,84.0,72.7,30.10,ENE,63,1.0,10.0,69,0.00,,,0.00,Wunderground v.1.15,2013-07-15 23:14:00,
2013-07-15 19:24:00,83.4,73.4,30.11,ENE,59,1.0,10.0,72,0.00,,,0.00,Wunderground v.1.15,2013-07-15 23:24:00,
2013-07-15 19:34:00,82.6,72.2,30.11,NE,40,1.0,10.0,71,0.00,,,0.00,Wunderground v.1.15,2013-07-15 23:34:00,
2013-07-15 19:39:00,82.2,72.3,30.11,NE,47,1.0,1.0,72,0.00,,,0.00,Wunderground v.1.15,2013-07-15 23:39:00,
2013-07-15 19:49:00,81.4,71.5,30.11,NE,56,1.0,10.0,72,0.00,,,0.00,Wunderground v.1.15,2013-07-15 23:49:00,
2013-07-15 19:59:00,80.7,70.8,30.12,ENE,63,1.0,1.0,72,0.00,,,0.00,Wunderground v.1.15,2013-07-15 23:59:00,
2013-07-15 20:09:00,79.9,70.5,30.12,ENE,63,0.0,0.0,73,0.00,,,0.00,Wunderground v.1.15,2013-07-16 00:09:00,
2013-07-15 20:19:00,79.4,70.4,30.12,ENE,63,0.0,0.0,74,0.00,,,0.00,Wunderground v.1.15,2013-07-16 00:19:00,
2013-07-15 20:34:00,77.9,69.3,30.12,ENE,63,0.0,0.0,75,0.00,,,0.00,Wunderground v.1.15,2013-07-16 00:34:00,
2013-07-15 20:39:00,77.4,68.9,30.12,ENE,63,0.0,0.0,75,0.00,,,0.00,Wunderground v.1.15,2013-07-16 00:39:00,
2013-07-15 20:54:00,76.0,67.9,30.13,ENE,63,0.0,0.0,76,0.00,,,0.00,Wunderground v.1.15,2013-07-16 00:54:00,
2013-07-15 21:04:00,75.4,67.7,30.13,ENE,63,0.0,10.0,77,0.00,,,0.00,Wunderground v.1.15,2013-07-16 01:04:00,
2013-07-15 21:14:00,74.7,67.4,30.13,ENE,63,0.0,10.0,78,0.00,,,0.00,Wunderground v.1.15,2013-07-16 01:14:00,
2013-07-15 21:19:00,74.6,67.3,30.13,ENE,63,0.0,10.0,78,0.00,,,0.00,Wunderground v.1.15,2013-07-16 01:19:00,
2013-07-15 21:29:00,73.9,67.0,30.14,ENE,63,0.0,10.0,79,0.00,,,0.00,Wunderground v.1.15,2013-07-16 01:29:00,
2013-07-15 21:39:00,73.3,66.0,30.14,ENE,63,0.0,10.0,78,0.00,,,0.00,Wunderground v.1.15,2013-07-16 01:39:00,
2013-07-15 21:49:00,73.2,66.3,30.14,ENE,63,0.0,10.0,79,0.00,,,0.00,Wunderground v.1.15,2013-07-16 01:49:00,
2013-07-15 21:59:00,72.7,66.5,30.14,ENE,63,0.0,10.0,81,0.00,,,0.00,Wunderground v.1.15,2013-07-16 01:59:00,
2013-07-15 22:04:00,72.3,66.5,30.14,ENE,63,0.0,10.0,82,0.00,,,0.00,Wunderground v.1.15,2013-07-16 02:04:00,
2013-07-15 22:14:00,71.6,66.2,30.15,ENE,63,0.0,0.0,83,0.00,,,0.00,Wunderground v.1.15,2013-07-16 02:14:00,
2013-07-15 22:24:00,71.1,66.0,30.15,ENE,63,0.0,0.0,84,0.00,,,0.00,Wunderground v.1.15,2013-07-16 02:24:00,
2013-07-15 22:29:00,70.8,65.7,30.15,ENE,63,0.0,0.0,84,0.00,,,0.00,Wunderground v.1.15,2013-07-16 02:29:00,
2013-07-15 22:39:00,70.4,65.7,30.15,ENE,63,0.0,0.0,85,0.00,,,0.00,Wunderground v.1.15,2013-07-16 02:39:00,
2013-07-15 22:49:00,70.3,65.6,30.15,ENE,63,0.0,0.0,85,0.00,,,0.00,Wunderground v.1.15,2013-07-16 02:49:00,
2013-07-15 22:59:00,70.4,66.0,30.15,ENE,63,0.0,0.0,86,0.00,,,0.00,Wunderground v.1.15,2013-07-16 02:59:00,
2013-07-15 23:04:00,70.3,65.9,30.15,ENE,63,0.0,6.0,86,0.00,,,0.00,Wunderground v.1.15,2013-07-16 03:04:00,
2013-07-15 23:19:00,70.1,66.0,30.15,ENE,63,0.0,6.0,87,0.00,,,0.00,Wunderground v.1.15,2013-07-16 03:19:00,
2013-07-15 23:29:00,69.8,66.1,30.15,ENE,63,0.0,6.0,88,0.00,,,0.00,Wunderground v.1.15,2013-07-16 03:29:00,
2013-07-15 23:38:00,69.3,65.6,30.15,ENE,63,0.0,6.0,88,0.00,,,0.00,Wunderground v.1.15,2013-07-16 03:38:00,
2013-07-15 23:44:00,69.1,65.7,30.15,ENE,63,0.0,6.0,89,0.00,,,0.00,Wunderground v.1.15,2013-07-16 03:44:00,
2013-07-15 23:54:00,68.9,65.2,30.15,ENE,63,0.0,6.0,88,0.00,,,0.00,Wunderground v.1.15,2013-07-16 03:54:00,